Weather History for Asheboro, NC

Change the Weather History Date:

Tuesday, March 4, 2014

  Actual Average Record
Temperature  
Mean Temperature 26 °F -  
Max Temperature 37 °F 59 °F 85 °F (1976)
Min Temperature 16 °F 40 °F 12 °F (1943)
Degree Days  
Heating Degree Days 39    
Moisture  
Dew Point 11 °F    
Average Humidity 52    
Maximum Humidity 74    
Minimum Humidity 35    
Precipitation  
Precipitation 0.00 in - - ()
Sea Level Pressure  
Sea Level Pressure 30.29 in    
Wind  
Wind Speed 1 mph (North)    
Max Wind Speed 10 mph    
Max Gust Speed -    
Visibility 10 miles    
Events      
Averages and records for this station are not official NWS values.
T = Trace of Precipitation, MM = Missing Value Source: NWS Daily Summary

Daily Weather History Graph

Daily Weather History Graph

Search for Another Location

Airport:

Trip Planner

Search our weather history database for the weather conditions in past years. The results will help you decide how hot, cold, wet, or windy it might be!

Date:

Astronomy

Mar. 04, 2014 Rise Set
Actual Time 6:45 AM EST 6:17 PM EST
Civil Twilight 6:19 AM EST 6:43 PM EST
Nautical Twilight 5:50 AM EST 7:12 PM EST
Astronomical Twilight 5:20 AM EST 7:42 PM EST
Moon 8:39 AM EST (3/4) 10:13 PM EST (3/4)
Length of Visible Light 12h 23m
Length of Day
11h 32m
Waxing Crescent, 14% of the Moon is Illuminated
Mar 4
Waxing Crescent
Mar 8
First Quarter
Mar 16
Full
Mar 23
Last Quarter
Mar 30
New

Hourly Weather History & Observations

Time (EST) Temp. Windchill Dew Point Humidity Pressure Visibility Wind Dir Wind Speed Gust Speed Precip Events Conditions
12:15 AM 21.9 °F - 14.0 °F 72% 30.28 in 10.0 mi Calm Calm - N/A   Clear
12:35 AM 21.6 °F - 14.5 °F 74% 30.28 in 10.0 mi Calm Calm - N/A   Clear
12:55 AM 21.2 °F - 14.0 °F 74% 30.29 in 10.0 mi Calm Calm - N/A   Clear
1:15 AM 21.2 °F - 14.0 °F 74% 30.30 in 10.0 mi Calm Calm - N/A   Clear
1:35 AM 20.8 °F - 13.6 °F 74% 30.31 in 10.0 mi Calm Calm - N/A   Clear
1:55 AM 20.3 °F - 12.6 °F 72% 30.30 in 10.0 mi Calm Calm - N/A   Clear
2:15 AM 19.9 °F - 10.2 °F 66% 30.31 in 10.0 mi Calm Calm - N/A   Clear
2:35 AM 19.8 °F - 8.6 °F 62% 30.30 in 10.0 mi Calm Calm - N/A   Clear
2:55 AM 19.4 °F - 8.1 °F 61% 30.29 in 10.0 mi Calm Calm - N/A   Clear
3:15 AM 19.0 °F - 7.5 °F 61% 30.30 in 10.0 mi Calm Calm - N/A   Clear
3:35 AM 18.9 °F - 7.5 °F 61% 30.30 in 10.0 mi Calm Calm - N/A   Clear
3:55 AM 18.5 °F - 7.3 °F 62% 30.29 in 10.0 mi Calm Calm - N/A   Clear
4:15 AM 18.5 °F - 7.7 °F 63% 30.30 in 10.0 mi Calm Calm - N/A   Clear
4:35 AM 18.1 °F - 7.2 °F 62% 30.31 in 10.0 mi Calm Calm - N/A   Clear
4:55 AM 17.8 °F - 7.3 °F 64% 30.31 in 10.0 mi Calm Calm - N/A   Clear
5:15 AM 17.6 °F - 7.3 °F 64% 30.32 in 10.0 mi Calm Calm - N/A   Clear
5:24 AM 17.6 °F - 6.8 °F 63% 30.32 in 10.0 mi Calm Calm - N/A   Clear
5:35 AM 17.4 °F - 6.8 °F 63% 30.33 in 10.0 mi Calm Calm - N/A   Clear
5:55 AM 17.2 °F - 6.4 °F 63% 30.32 in 10.0 mi Calm Calm - N/A   Clear
6:15 AM 17.2 °F - 5.9 °F 61% 30.33 in 10.0 mi Calm Calm - N/A   Clear
6:35 AM 17.1 °F - 5.9 °F 62% 30.33 in 10.0 mi Calm Calm - N/A   Clear
6:50 AM 17.6 °F - 6.8 °F 63% 30.34 in 10.0 mi Calm Calm - N/A   Clear
6:55 AM 17.1 °F - 6.6 °F 64% 30.34 in 10.0 mi Calm Calm - N/A   Clear
7:04 AM 17.6 °F - 6.8 °F 63% 30.35 in 10.0 mi Calm Calm - N/A   Clear
7:15 AM 16.9 °F - 7.3 °F 66% 30.35 in 10.0 mi Calm Calm - N/A   Clear
7:35 AM 17.2 °F - 7.2 °F 65% 30.36 in 10.0 mi Calm Calm - N/A   Clear
7:55 AM 17.8 °F - 7.0 °F 63% 30.37 in 10.0 mi Calm Calm - N/A   Clear
8:15 AM 18.7 °F - 6.8 °F 60% 30.36 in 10.0 mi Calm Calm - N/A   Clear
8:35 AM 19.9 °F - 6.8 °F 57% 30.37 in 10.0 mi Calm Calm - N/A   Clear
8:55 AM 20.8 °F - 7.0 °F 55% 30.36 in 10.0 mi Calm Calm - N/A   Clear
9:15 AM 21.4 °F - 5.9 °F 51% 30.35 in 10.0 mi Calm Calm - N/A   Clear
9:35 AM 22.5 °F - 6.1 °F 50% 30.36 in 10.0 mi Calm Calm - N/A   Clear
9:55 AM 23.2 °F - 6.1 °F 48% 30.35 in 10.0 mi Calm Calm - N/A   Clear
10:15 AM 24.6 °F - 7.7 °F 49% 30.35 in 10.0 mi Calm Calm - N/A   Clear
10:40 AM 25.2 °F - 7.7 °F 48% 30.35 in 10.0 mi Calm Calm - N/A   Clear
10:55 AM 25.7 °F - 7.9 °F 47% 30.34 in 10.0 mi Calm Calm - N/A   Clear
11:15 AM 27.1 °F 23.2 °F 8.2 °F 45% 30.34 in 10.0 mi NNE 3.5 mph - N/A   Clear
11:35 AM 27.9 °F 20.6 °F 9.1 °F 45% 30.33 in 10.0 mi North 6.9 mph - N/A   Clear
11:55 AM 29.1 °F 22.1 °F 9.0 °F 43% 30.33 in 10.0 mi North 6.9 mph - N/A   Clear
12:15 PM 29.8 °F - 9.0 °F 42% 30.31 in 10.0 mi Calm Calm - N/A   Clear
12:35 PM 30.9 °F 23.5 °F 10.2 °F 42% 30.30 in 10.0 mi North 8.1 mph - N/A   Clear
12:55 PM 30.9 °F 24.3 °F 9.1 °F 40% 30.29 in 10.0 mi North 6.9 mph - N/A   Clear
1:15 PM 31.8 °F - 10.4 °F 41% 30.28 in 10.0 mi Calm Calm - N/A   Clear
1:35 PM 32.0 °F - 12.2 °F 44% 30.26 in 10.0 mi Calm Calm - N/A   Clear
1:55 PM 32.7 °F - 14.0 °F 46% 30.26 in 10.0 mi Calm Calm - N/A   Clear
2:15 PM 32.9 °F 26.7 °F 14.0 °F 46% 30.25 in 10.0 mi North 6.9 mph - N/A   Clear
2:35 PM 34.3 °F 26.5 °F 15.1 °F 45% 30.24 in 10.0 mi North 10.4 mph - N/A   Clear
2:55 PM 34.3 °F - 12.4 °F 40% 30.24 in 10.0 mi Calm Calm - N/A   Clear
3:15 PM 36.0 °F 33.3 °F 12.4 °F 38% 30.23 in 10.0 mi NE 3.5 mph - N/A   Clear
3:35 PM 35.8 °F 29.4 °F 10.8 °F 36% 30.22 in 10.0 mi North 8.1 mph - N/A   Clear
3:55 PM 36.7 °F 31.2 °F 10.9 °F 35% 30.23 in 10.0 mi North 6.9 mph - N/A   Clear
4:15 PM 36.7 °F - 11.7 °F 36% 30.22 in 10.0 mi Calm Calm - N/A   Clear
4:35 PM 36.9 °F - 11.8 °F 36% 30.22 in 10.0 mi Calm Calm - N/A   Clear
4:55 PM 36.5 °F - 11.8 °F 36% 30.21 in 10.0 mi Calm Calm - N/A   Clear
5:15 PM 36.5 °F - 13.3 °F 39% 30.22 in 10.0 mi Calm Calm - N/A   Clear
5:35 PM 36.0 °F - 14.0 °F 41% 30.23 in 10.0 mi Calm Calm - N/A   Clear
5:55 PM 35.1 °F - 13.1 °F 40% 30.23 in 10.0 mi Calm Calm - N/A   Clear
6:15 PM 34.9 °F - 13.3 °F 41% 30.24 in 10.0 mi Calm Calm - N/A   Mostly Cloudy
6:35 PM 34.7 °F - 14.4 °F 43% 30.25 in 10.0 mi Calm Calm - N/A   Scattered Clouds
6:55 PM 34.3 °F - 14.5 °F 44% 30.26 in 10.0 mi Calm Calm - N/A   Mostly Cloudy
7:15 PM 33.8 °F - 14.4 °F 45% 30.26 in 10.0 mi Calm Calm - N/A   Overcast
7:35 PM 33.6 °F - 14.5 °F 46% 30.26 in 10.0 mi Calm Calm - N/A   Overcast
7:55 PM 33.3 °F - 14.0 °F 45% 30.26 in 10.0 mi Calm Calm - N/A   Mostly Cloudy
8:15 PM 32.9 °F - 13.8 °F 45% 30.26 in 10.0 mi Calm Calm - N/A   Scattered Clouds
8:35 PM 32.2 °F - 14.4 °F 48% 30.25 in 10.0 mi Calm Calm - N/A   Scattered Clouds
8:55 PM 32.0 °F - 14.2 °F 48% 30.24 in 10.0 mi Calm Calm - N/A   Scattered Clouds
9:15 PM 31.8 °F - 14.2 °F 48% 30.23 in 10.0 mi Calm Calm - N/A   Clear
9:35 PM 31.6 °F - 14.2 °F 49% 30.23 in 10.0 mi Calm Calm - N/A   Clear
9:55 PM 31.5 °F - 13.5 °F 47% 30.25 in 10.0 mi Calm Calm - N/A   Clear
10:15 PM 31.3 °F - 13.8 °F 49% 30.25 in 10.0 mi Calm Calm - N/A   Clear
10:35 PM 31.1 °F - 14.0 °F 49% 30.24 in 10.0 mi Calm Calm - N/A   Clear
10:55 PM 30.9 °F - 14.4 °F 50% 30.24 in 10.0 mi Calm Calm - N/A   Clear
11:15 PM 30.7 °F - 14.4 °F 51% 30.24 in 10.0 mi Calm Calm - N/A   Clear
11:35 PM 30.7 °F - 13.8 °F 50% 30.24 in 10.0 mi Calm Calm - N/A   Clear
11:55 PM 30.6 °F - 13.8 °F 50% 30.24 in 10.0 mi Calm Calm - N/A   Clear